This is the latest recevied weather packets stored in our database for station/object DL9GRB-13. If no packets are shown the sender has not sent any weather packets the latest 10 day(s).
| Time | Temp. | Humidity | Pressure | Rain* | Wind** | Luminosity | Snow |
|---|---|---|---|---|---|---|---|
| 1777266305 | 2.22° C | 96% | 1023 hPa | 0 mm | - | 45 W/m² | - |
| 1777266125 | 2.22° C | 96% | 1022.8 hPa | 0 mm | - | 60 W/m² | - |
| 1777265945 | 1.67° C | 96% | 1022.9 hPa | 0 mm | - | 58 W/m² | - |
| 1777265765 | 0.56° C | 95% | 1022.9 hPa | 0 mm | - | 55 W/m² | - |
| 1777265585 | 0.56° C | 95% | 1023 hPa | 0 mm | - | 52 W/m² | - |
| 1777265405 | 0° C | 95% | 1022.8 hPa | 0 mm | - | 49 W/m² | - |
| 1777265225 | -0.56° C | 94% | 1022.8 hPa | 0 mm | - | 46 W/m² | - |
| 1777265045 | -0.56° C | 94% | 1022.9 hPa | 0 mm | - | 25 W/m² | - |
| 1777264865 | -0.56° C | 94% | 1022.9 hPa | 0 mm | - | 24 W/m² | - |
| 1777264685 | -0.56° C | 94% | 1022.8 hPa | 0 mm | - | 23 W/m² | - |
| 1777264505 | -0.56° C | 94% | 1022.6 hPa | 0 mm | - | 22 W/m² | - |
| 1777264325 | -0.56° C | 93% | 1022.7 hPa | 0 mm | - | 21 W/m² | - |
| 1777264145 | -0.56° C | 93% | 1022.6 hPa | 0 mm | - | 19 W/m² | - |
| 1777263965 | -0.56° C | 93% | 1022.6 hPa | 0 mm | - | 18 W/m² | - |
| 1777263785 | -0.56° C | 93% | 1022.5 hPa | 0 mm | - | 17 W/m² | - |
| 1777263605 | -0.56° C | 93% | 1022.7 hPa | 0 mm | - | 16 W/m² | - |
| 1777263425 | -1.11° C | 92% | 1022.5 hPa | 0 mm | - | 15 W/m² | - |
| 1777263245 | -1.11° C | 92% | 1022.5 hPa | 0 mm | - | 13 W/m² | - |
| 1777263065 | -1.11° C | 92% | 1022.6 hPa | 0 mm | - | 12 W/m² | - |
| 1777262885 | -1.11° C | 92% | 1022.5 hPa | 0 mm | - | 11 W/m² | - |
| 1777262705 | -1.11° C | 92% | 1022.8 hPa | 0 mm | - | 10 W/m² | - |
| 1777262525 | -1.11° C | 92% | 1022.6 hPa | 0 mm | - | 8 W/m² | - |
| 1777262345 | -1.11° C | 92% | 1022.5 hPa | 0 mm | - | 7 W/m² | - |
| 1777262165 | -1.11° C | 92% | 1022.5 hPa | 0 mm | - | 6 W/m² | - |
| 1777261985 | -1.11° C | 91% | 1022.7 hPa | 0 mm | - | 5 W/m² | - |
* Rain latest hour (hover to see other rain measurements)
** Current wind speed in m/s (hover to see current wind gust speed)